sat.trackr.live / text

‹ back to catalog

HYPSO-1

NORAD 51053 · 2022-002BX

PAYLOAD ACTIVE UNKNOWN

§ Identity

Operator
Country
NOR
Launch date
2022-01-13
Launch site
AFETR
Launch vehicle
Mass (kg)
RCS (m²)

External: N2YO · Heavens-Above · Gunter

§ Orbital elements

Epoch: 2026-05-25T04:19:52.196736Z

Period
91.83 min
Inclination
97.2841°
Eccentricity
0.0001020
Mean motion
15.68053391 rev/d
Perigee alt
363.8 km
Apogee alt
365.2 km
Semi-major
6,742.6 km
B*
5.4470e-4
RAAN
225.2159°
Arg perigee
75.4868°
Mean anomaly
284.6506°
Rev number
24,330

§ Raw data

HYPSO-11 51053U 22002BX  26145.18046524  .00060565  00000+0  54470-3 0  99922 51053  97.2841 225.2159 0001020  75.4868 284.6506 15.68053391243308

JSON: /api/v1/satellites/51053 · /tle

For live sub-satellite position, see the globe view (requires WebGL).

§ Visibility from observer

Set your observer location to see the next 7 days of passes ≥ 10°. The values pass through the URL so the page stays shareable.

No JS? Fill the form by hand. The geolocation button needs JavaScript.